Regional Weather Roundup
Issued by NWS

Home | Current Version | Previous Version | Graphics & Text | Print | Product List | Glossary On
Versions: 1 2 3 4 5 6 7 8 9 10 11 12 13 14 15 16 17 18 19 20 21 22 23 24 25 26 27 28 29 30 31 32 33 34 35 36 37 38 39 40 41 42 43 44 45 46 47 48 49 50
000
ASUS45 KCYS 291410
RWRWY

WYOMING REGIONAL WEATHER ROUNDUP
NATIONAL WEATHER SERVICE CHEYENNE WY
800 AM MDT MON JUN 29 2015

NOTE:  "FAIR" INDICATES FEW OR NO CLOUDS BELOW 12,000 FEET
WITH NO SIGNIFICANT WEATHER AND/OR OBSTRUCTIONS TO VISIBILITY.

WYZ001-291500-
YELLOWSTONE NATIONAL PARK

CITY           SKY/WX    TMP DP  RH WIND       PRES   REMARKS
LK YELLOWSTONE   N/A     57  49  74 CALM      30.47S
W YELLOWSTONE  NOT AVBL

$$
WYZ002>013-054>058-071-098>099-291500-
NORTHERN WYOMING

CITY           SKY/WX    TMP DP  RH WIND       PRES   REMARKS
JACKSON        FAIR      59  48  67 CALM      30.37S
CODY           FAIR      72  50  46 SW5       30.24S
GREYBULL       FAIR      69  53  56 SE3       30.17R
WORLAND        FAIR      69  53  56 SW5       30.18R
SHERIDAN       FAIR      74  58  57 CALM      30.15R
BUFFALO        FAIR      79  45  29 NW8       30.21R
GILLETTE       FAIR      71  58  63 S8        30.17S
HULETT         FAIR      72  55  56 SW6       30.17R
NEWCASTLE      FAIR      70  50  49 MISG      30.18R

$$
WYZ014>020-022>026-101>103-291500-
CENTRAL WYOMING

CITY           SKY/WX    TMP DP  RH WIND       PRES   REMARKS
BIG PINEY      FAIR      61  45  55 CALM      30.40R
PINEDALE       FAIR      61  46  59 NW5       30.40S
DUBOIS         FAIR      59  43  55 NW9       30.40S
LANDER         FAIR      68  49  50 CALM      30.27R
RIVERTON       FAIR      69  50  50 N6        30.28R
CASPER         FAIR      69  51  52 SW10      30.25R
DOUGLAS        FAIR      66  54  65 NE10      30.24R

$$
WYZ021-027>030-104>119-291500-
SOUTHERN WYOMING

CITY           SKY/WX    TMP DP  RH WIND       PRES   REMARKS
EVANSTON       FAIR      67  43  41 E7        30.36R
KEMMERER       FAIR      70  43  37 NE12      30.40R
FORT BRIDGER   SUNNY     68  45  42 E6        30.40R
ROCK SPRINGS   FAIR      66  47  50 E5        30.36R
DIXON          FAIR      67  45  43 E8        30.35S
RAWLINS        FAIR      65  47  52 CALM      30.37R
SARATOGA       FAIR      61  48  63 S5        30.39R
LARAMIE        FAIR      60  50  69 VRB3      30.39R
CHEYENNE       FAIR      67  53  61 SE3       30.30R
TORRINGTON     PTSUNNY   68  56  65 NE8       30.19R
PINE BLUFFS    FAIR      66  55  68 SW5       30.25R

$$



USA.gov is the U.S. government's official web portal to all federal, state and local government web resources and services.